owner,sensor,date,latitude,longitude,vertical_datum,wind_speed,wind_to_direction,wind_speed_of_gust,qcFlag 
TCOON,ioos:station:TCOON:006:1,2011-09-01T00:00:00Z,27.8217,-97.2040,0.0,3.5,117.0,6.0,'11111222,11111222,11111222' 
TCOON,ioos:station:TCOON:006:1,2011-09-01T01:00:00Z,27.8217,-97.2040,0.0,4.1,94.0,5.6,'11111222,11111222,11111222' 
TCOON,ioos:station:TCOON:006:1,2011-09-01T02:00:00Z,27.8217,-97.2040,0.0,5.2,75.0,7.3,'11111222,11111222,11111222' 
TCOON,ioos:station:TCOON:006:1,2011-09-01T03:00:00Z,27.8217,-97.2040,0.0,5.1,83.0,7.1,'11111222,11111222,11111222' 
TCOON,ioos:station:TCOON:006:1,2011-09-01T04:00:00Z,27.8217,-97.2040,0.0,5.2,94.0,6.7,'11111222,11111222,11111222' 
TCOON,ioos:station:TCOON:006:1,2011-09-01T05:00:00Z,27.8217,-97.2040,0.0,4.6,97.0,6.3,'11111222,11111222,11111222' 
TCOON,ioos:station:TCOON:006:1,2011-09-01T06:00:00Z,27.8217,-97.2040,0.0,4.5,100.0,6.1,'11111222,11111222,11111222' 
TCOON,ioos:station:TCOON:006:1,2011-09-01T07:00:00Z,27.8217,-97.2040,0.0,4.0,103.0,6.0,'11111222,11111222,11111222' 
TCOON,ioos:station:TCOON:006:1,2011-09-01T08:00:00Z,27.8217,-97.2040,0.0,3.2,104.0,4.4,'11111222,11111222,11111222' 
TCOON,ioos:station:TCOON:006:1,2011-09-01T09:00:00Z,27.8217,-97.2040,0.0,1.9,83.0,3.2,'11111222,11111222,11111222' 
TCOON,ioos:station:TCOON:006:1,2011-09-01T10:00:00Z,27.8217,-97.2040,0.0,0.8,358.0,1.2,'11111222,11111222,11111222' 
TCOON,ioos:station:TCOON:006:1,2011-09-01T11:00:00Z,27.8217,-97.2040,0.0,2.6,350.0,3.2,'11111222,11111222,11111222' 
TCOON,ioos:station:TCOON:006:1,2011-09-01T12:00:00Z,27.8217,-97.2040,0.0,1.6,354.0,2.9,'11111222,11111222,11111222' 
TCOON,ioos:station:TCOON:006:1,2011-09-01T13:00:00Z,27.8217,-97.2040,0.0,1.8,25.0,2.9,'11111222,11111222,11111222' 
TCOON,ioos:station:TCOON:006:1,2011-09-01T14:00:00Z,27.8217,-97.2040,0.0,2.3,66.0,4.2,'11111222,11111222,11111222' 
TCOON,ioos:station:TCOON:006:1,2011-09-01T15:00:00Z,27.8217,-97.2040,0.0,4.1,54.0,5.1,'11111222,11111222,11111222' 
TCOON,ioos:station:TCOON:006:1,2011-09-01T16:00:00Z,27.8217,-97.2040,0.0,3.9,53.0,6.7,'11111222,11111222,11111222' 
TCOON,ioos:station:TCOON:006:1,2011-09-01T17:00:00Z,27.8217,-97.2040,0.0,4.6,54.0,6.2,'11111222,11111222,11111222' 
TCOON,ioos:station:TCOON:006:1,2011-09-01T18:00:00Z,27.8217,-97.2040,0.0,4.4,70.0,6.9,'11111222,11111222,11111222' 
TCOON,ioos:station:TCOON:006:1,2011-09-01T19:00:00Z,27.8217,-97.2040,0.0,3.9,77.0,6.1,'11111222,11111222,11111222' 
TCOON,ioos:station:TCOON:006:1,2011-09-01T20:00:00Z,27.8217,-97.2040,0.0,5.1,100.0,6.8,'11111222,11111222,11111222' 
TCOON,ioos:station:TCOON:006:1,2011-09-01T21:00:00Z,27.8217,-97.2040,0.0,3.9,98.0,6.8,'11111222,11111222,11111222' 
TCOON,ioos:station:TCOON:006:1,2011-09-01T22:00:00Z,27.8217,-97.2040,0.0,4.8,99.0,6.6,'11111222,11111222,11111222' 
TCOON,ioos:station:TCOON:006:1,2011-09-01T23:00:00Z,27.8217,-97.2040,0.0,3.3,99.0,5.5,'11111222,11111222,11111222' 
TCOON,ioos:station:TCOON:006:1,2011-09-02T00:00:00Z,27.8217,-97.2040,0.0,4.6,82.0,5.6,'11111222,11111222,11111222' 
TCOON,ioos:station:TCOON:006:1,2011-09-02T01:00:00Z,27.8217,-97.2040,0.0,4.7,84.0,5.7,'11111222,11111222,11111222' 
TCOON,ioos:station:TCOON:006:1,2011-09-02T02:00:00Z,27.8217,-97.2040,0.0,3.1,78.0,5.0,'11111222,11111222,11111222' 
TCOON,ioos:station:TCOON:006:1,2011-09-02T03:00:00Z,27.8217,-97.2040,0.0,3.6,81.0,4.4,'11111222,11111222,11111222' 
TCOON,ioos:station:TCOON:006:1,2011-09-02T04:00:00Z,27.8217,-97.2040,0.0,2.7,80.0,3.5,'11111222,11111222,11111222' 
TCOON,ioos:station:TCOON:006:1,2011-09-02T05:00:00Z,27.8217,-97.2040,0.0,2.5,88.0,3.4,'11111222,11111222,11111222' 
TCOON,ioos:station:TCOON:006:1,2011-09-02T06:00:00Z,27.8217,-97.2040,0.0,1.8,98.0,3.1,'11111222,11111222,11111222' 
TCOON,ioos:station:TCOON:006:1,2011-09-02T07:00:00Z,27.8217,-97.2040,0.0,0.3,358.0,1.1,'11111222,11111222,11111222' 
TCOON,ioos:station:TCOON:006:1,2011-09-02T08:00:00Z,27.8217,-97.2040,0.0,1.8,349.0,2.5,'11111222,11111222,11111222' 
TCOON,ioos:station:TCOON:006:1,2011-09-02T09:00:00Z,27.8217,-97.2040,0.0,2.4,347.0,3.0,'11111222,11111222,11111222' 
TCOON,ioos:station:TCOON:006:1,2011-09-02T10:00:00Z,27.8217,-97.2040,0.0,1.9,347.0,3.3,'11111222,11111222,11111222' 
TCOON,ioos:station:TCOON:006:1,2011-09-02T11:00:00Z,27.8217,-97.2040,0.0,2.0,355.0,3.6,'11111222,11111222,11111222' 
TCOON,ioos:station:TCOON:006:1,2011-09-02T12:00:00Z,27.8217,-97.2040,0.0,2.6,348.0,3.9,'11111222,11111222,11111222' 
TCOON,ioos:station:TCOON:006:1,2011-09-02T13:00:00Z,27.8217,-97.2040,0.0,2.1,4.0,4.9,'11111222,11111222,11111222' 
TCOON,ioos:station:TCOON:006:1,2011-09-02T14:00:00Z,27.8217,-97.2040,0.0,1.5,23.0,4.7,'11111222,11111222,11111222' 
TCOON,ioos:station:TCOON:006:1,2011-09-02T15:00:00Z,27.8217,-97.2040,0.0,3.7,51.0,6.4,'11111222,11111222,11111222' 
TCOON,ioos:station:TCOON:006:1,2011-09-02T16:00:00Z,27.8217,-97.2040,0.0,4.9,60.0,7.4,'11111222,11111222,11111222' 
TCOON,ioos:station:TCOON:006:1,2011-09-02T17:00:00Z,27.8217,-97.2040,0.0,4.9,62.0,5.9,'11111222,11111222,11111222' 
TCOON,ioos:station:TCOON:006:1,2011-09-02T18:00:00Z,27.8217,-97.2040,0.0,3.9,81.0,5.7,'11111222,11111222,11111222' 
TCOON,ioos:station:TCOON:006:1,2011-09-02T19:00:00Z,27.8217,-97.2040,0.0,4.3,90.0,6.0,'11111222,11111222,11111222' 
TCOON,ioos:station:TCOON:006:1,2011-09-02T20:00:00Z,27.8217,-97.2040,0.0,3.9,109.0,6.0,'11111222,11111222,11111222' 
TCOON,ioos:station:TCOON:006:1,2011-09-02T21:00:00Z,27.8217,-97.2040,0.0,6.8,95.0,8.6,'11111222,11111222,11111222' 
TCOON,ioos:station:TCOON:006:1,2011-09-02T22:00:00Z,27.8217,-97.2040,0.0,7.5,91.0,8.9,'11111222,11111222,11111222' 
TCOON,ioos:station:TCOON:006:1,2011-09-02T23:00:00Z,27.8217,-97.2040,0.0,7.5,86.0,9.7,'11111222,11111222,11111222' 
TCOON,ioos:station:TCOON:006:1,2011-09-03T00:00:00Z,27.8217,-97.2040,0.0,6.2,71.0,8.9,'11111222,11111222,11111222' 
TCOON,ioos:station:TCOON:006:1,2011-09-03T01:00:00Z,27.8217,-97.2040,0.0,6.0,78.0,7.8,'11111222,11111222,11111222' 
TCOON,ioos:station:TCOON:006:1,2011-09-03T02:00:00Z,27.8217,-97.2040,0.0,5.9,81.0,8.7,'11111222,11111222,11111222' 
TCOON,ioos:station:TCOON:006:1,2011-09-03T03:00:00Z,27.8217,-97.2040,0.0,5.1,86.0,7.0,'11111222,11111222,11111222' 
TCOON,ioos:station:TCOON:006:1,2011-09-03T04:00:00Z,27.8217,-97.2040,0.0,5.1,90.0,6.5,'11111222,11111222,11111222' 
TCOON,ioos:station:TCOON:006:1,2011-09-03T05:00:00Z,27.8217,-97.2040,0.0,4.8,70.0,6.8,'11111222,11111222,11111222' 
TCOON,ioos:station:TCOON:006:1,2011-09-03T06:00:00Z,27.8217,-97.2040,0.0,3.0,57.0,5.1,'11111222,11111222,11111222' 
TCOON,ioos:station:TCOON:006:1,2011-09-03T07:00:00Z,27.8217,-97.2040,0.0,2.8,56.0,4.4,'11111222,11111222,11111222' 
TCOON,ioos:station:TCOON:006:1,2011-09-03T08:00:00Z,27.8217,-97.2040,0.0,1.8,52.0,3.0,'11111222,11111222,11111222' 
TCOON,ioos:station:TCOON:006:1,2011-09-03T09:00:00Z,27.8217,-97.2040,0.0,1.9,342.0,2.3,'11111222,11111222,11111222' 
TCOON,ioos:station:TCOON:006:1,2011-09-03T10:00:00Z,27.8217,-97.2040,0.0,1.7,339.0,2.5,'11111222,11111222,11111222' 
TCOON,ioos:station:TCOON:006:1,2011-09-03T11:00:00Z,27.8217,-97.2040,0.0,2.0,340.0,3.1,'11111222,11111222,11111222' 
TCOON,ioos:station:TCOON:006:1,2011-09-03T12:00:00Z,27.8217,-97.2040,0.0,2.0,331.0,2.5,'11111222,11111222,11111222' 
TCOON,ioos:station:TCOON:006:1,2011-09-03T13:00:00Z,27.8217,-97.2040,0.0,2.2,309.0,2.8,'11111222,11111222,11111222' 
TCOON,ioos:station:TCOON:006:1,2011-09-03T14:00:00Z,27.8217,-97.2040,0.0,3.3,305.0,5.0,'11111222,11111222,11111222' 
TCOON,ioos:station:TCOON:006:1,2011-09-03T15:00:00Z,27.8217,-97.2040,0.0,3.2,356.0,5.9,'11111222,11111222,11111222' 
TCOON,ioos:station:TCOON:006:1,2011-09-03T16:00:00Z,27.8217,-97.2040,0.0,5.4,323.0,8.6,'11111222,11111222,11111222' 
TCOON,ioos:station:TCOON:006:1,2011-09-03T17:00:00Z,27.8217,-97.2040,0.0,6.6,298.0,8.0,'11111222,11111222,11111222' 
TCOON,ioos:station:TCOON:006:1,2011-09-03T18:00:00Z,27.8217,-97.2040,0.0,5.7,305.0,7.1,'11111222,11111222,11111222' 
TCOON,ioos:station:TCOON:006:1,2011-09-03T19:00:00Z,27.8217,-97.2040,0.0,6.1,351.0,7.1,'11111222,11111222,11111222' 
TCOON,ioos:station:TCOON:006:1,2011-09-03T20:00:00Z,27.8217,-97.2040,0.0,4.2,357.0,6.8,'11111222,11111222,11111222' 
TCOON,ioos:station:TCOON:006:1,2011-09-03T21:00:00Z,27.8217,-97.2040,0.0,2.7,141.0,6.3,'11111222,11111222,11111222' 
TCOON,ioos:station:TCOON:006:1,2011-09-03T22:00:00Z,27.8217,-97.2040,0.0,5.2,137.0,6.6,'11111222,11111222,11111222' 
TCOON,ioos:station:TCOON:006:1,2011-09-03T23:00:00Z,27.8217,-97.2040,0.0,4.7,151.0,6.2,'11111222,11111222,11111222' 
TCOON,ioos:station:TCOON:006:1,2011-09-04T00:00:00Z,27.8217,-97.2040,0.0,3.3,193.0,4.3,'11111222,11111222,11111222' 
TCOON,ioos:station:TCOON:006:1,2011-09-04T01:00:00Z,27.8217,-97.2040,0.0,4.0,218.0,4.7,'11111222,11111222,11111222' 
TCOON,ioos:station:TCOON:006:1,2011-09-04T02:00:00Z,27.8217,-97.2040,0.0,2.7,244.0,4.2,'11111222,11111222,11111222' 
TCOON,ioos:station:TCOON:006:1,2011-09-04T03:00:00Z,27.8217,-97.2040,0.0,5.7,71.0,8.1,'11111222,11111222,11111222' 
TCOON,ioos:station:TCOON:006:1,2011-09-04T04:00:00Z,27.8217,-97.2040,0.0,4.3,81.0,5.7,'11111222,11111222,11111222' 
TCOON,ioos:station:TCOON:006:1,2011-09-04T05:00:00Z,27.8217,-97.2040,0.0,1.9,108.0,3.2,'11111222,11111222,11111222' 
TCOON,ioos:station:TCOON:006:1,2011-09-04T06:00:00Z,27.8217,-97.2040,0.0,2.2,151.0,2.6,'11111222,11111222,11111222' 
TCOON,ioos:station:TCOON:006:1,2011-09-04T07:00:00Z,27.8217,-97.2040,0.0,1.4,174.0,2.0,'11111222,11111222,11111222' 
TCOON,ioos:station:TCOON:006:1,2011-09-04T08:00:00Z,27.8217,-97.2040,0.0,2.0,223.0,2.9,'11111222,11111222,11111222' 
TCOON,ioos:station:TCOON:006:1,2011-09-04T09:00:00Z,27.8217,-97.2040,0.0,2.0,345.0,2.3,'11111222,11111222,11111222' 
TCOON,ioos:station:TCOON:006:1,2011-09-04T10:00:00Z,27.8217,-97.2040,0.0,2.6,307.0,3.1,'11111222,11111222,11111222' 
TCOON,ioos:station:TCOON:006:1,2011-09-04T11:00:00Z,27.8217,-97.2040,0.0,2.1,309.0,2.6,'11111222,11111222,11111222' 
TCOON,ioos:station:TCOON:006:1,2011-09-04T12:00:00Z,27.8217,-97.2040,0.0,1.6,336.0,2.9,'11111222,11111222,11111222' 
TCOON,ioos:station:TCOON:006:1,2011-09-04T13:00:00Z,27.8217,-97.2040,0.0,5.0,335.0,8.4,'11111222,11111222,11111222' 
TCOON,ioos:station:TCOON:006:1,2011-09-04T14:00:00Z,27.8217,-97.2040,0.0,4.4,357.0,8.2,'11111222,11111222,11111222' 
TCOON,ioos:station:TCOON:006:1,2011-09-04T15:00:00Z,27.8217,-97.2040,0.0,6.6,330.0,9.2,'11111222,11111222,11111222' 
TCOON,ioos:station:TCOON:006:1,2011-09-04T16:00:00Z,27.8217,-97.2040,0.0,5.1,333.0,8.9,'11111222,11111222,11111222' 
TCOON,ioos:station:TCOON:006:1,2011-09-04T17:00:00Z,27.8217,-97.2040,0.0,6.1,342.0,10.7,'11111222,11111222,11111222' 
TCOON,ioos:station:TCOON:006:1,2011-09-04T18:00:00Z,27.8217,-97.2040,0.0,4.4,357.0,8.5,'11111222,11111222,11111222' 
TCOON,ioos:station:TCOON:006:1,2011-09-04T19:00:00Z,27.8217,-97.2040,0.0,3.4,346.0,6.5,'11111222,11111222,11111222' 
TCOON,ioos:station:TCOON:006:1,2011-09-04T20:00:00Z,27.8217,-97.2040,0.0,2.7,2.0,6.6,'11111222,11111222,11111222' 
TCOON,ioos:station:TCOON:006:1,2011-09-04T21:00:00Z,27.8217,-97.2040,0.0,2.8,1.0,7.1,'11111222,11111222,11111222' 
TCOON,ioos:station:TCOON:006:1,2011-09-04T22:00:00Z,27.8217,-97.2040,0.0,4.0,21.0,9.1,'11111222,11111222,11111222' 
TCOON,ioos:station:TCOON:006:1,2011-09-04T23:00:00Z,27.8217,-97.2040,0.0,3.1,38.0,5.1,'11111222,11111222,11111222' 
TCOON,ioos:station:TCOON:006:1,2011-09-05T00:00:00Z,27.8217,-97.2040,0.0,3.7,63.0,7.9,'11111222,11111222,11111222' 
TCOON,ioos:station:TCOON:006:1,2011-09-05T01:00:00Z,27.8217,-97.2040,0.0,5.3,76.0,7.2,'11111222,11111222,11111222' 
TCOON,ioos:station:TCOON:006:1,2011-09-05T02:00:00Z,27.8217,-97.2040,0.0,2.1,88.0,2.8,'11111222,11111222,11111222' 
TCOON,ioos:station:TCOON:006:1,2011-09-05T03:00:00Z,27.8217,-97.2040,0.0,0.9,99.0,1.4,'11111222,11111222,11111222' 
TCOON,ioos:station:TCOON:006:1,2011-09-05T04:00:00Z,27.8217,-97.2040,0.0,1.1,254.0,1.3,'11111222,11111222,11111222' 
TCOON,ioos:station:TCOON:006:1,2011-09-05T05:00:00Z,27.8217,-97.2040,0.0,1.4,238.0,1.7,'11111222,11111222,11111222' 
TCOON,ioos:station:TCOON:006:1,2011-09-05T06:00:00Z,27.8217,-97.2040,0.0,3.3,268.0,4.2,'11111222,11111222,11111222' 
TCOON,ioos:station:TCOON:006:1,2011-09-05T07:00:00Z,27.8217,-97.2040,0.0,4.0,272.0,5.0,'11111222,11111222,11111222' 
TCOON,ioos:station:TCOON:006:1,2011-09-05T08:00:00Z,27.8217,-97.2040,0.0,2.0,343.0,3.5,'11111222,11111222,11111222' 
TCOON,ioos:station:TCOON:006:1,2011-09-05T09:00:00Z,27.8217,-97.2040,0.0,1.8,5.0,4.3,'11111222,11111222,11111222' 
TCOON,ioos:station:TCOON:006:1,2011-09-05T10:00:00Z,27.8217,-97.2040,0.0,2.4,8.0,6.0,'11111222,11111222,11111222' 
TCOON,ioos:station:TCOON:006:1,2011-09-05T11:00:00Z,27.8217,-97.2040,0.0,1.5,2.0,2.6,'11111222,11111222,11111222' 
TCOON,ioos:station:TCOON:006:1,2011-09-05T12:00:00Z,27.8217,-97.2040,0.0,1.2,3.0,3.4,'11111222,11111222,11111222' 
TCOON,ioos:station:TCOON:006:1,2011-09-05T13:00:00Z,27.8217,-97.2040,0.0,2.7,357.0,7.8,'11111222,11111222,11111222' 
TCOON,ioos:station:TCOON:006:1,2011-09-05T14:00:00Z,27.8217,-97.2040,0.0,3.5,360.0,8.3,'11111222,11144222,11111222' 
TCOON,ioos:station:TCOON:006:1,2011-09-05T15:00:00Z,27.8217,-97.2040,0.0,4.0,5.0,5.3,'11111222,11111222,11111222' 
TCOON,ioos:station:TCOON:006:1,2011-09-05T16:00:00Z,27.8217,-97.2040,0.0,3.0,20.0,7.7,'11111222,11111222,11111222' 
TCOON,ioos:station:TCOON:006:1,2011-09-05T17:00:00Z,27.8217,-97.2040,0.0,3.6,354.0,8.6,'11111222,11111222,11111222' 
TCOON,ioos:station:TCOON:006:1,2011-09-05T18:00:00Z,27.8217,-97.2040,0.0,3.7,13.0,6.8,'11111222,11111222,11111222' 
TCOON,ioos:station:TCOON:006:1,2011-09-05T19:00:00Z,27.8217,-97.2040,0.0,3.1,357.0,5.9,'11111222,11111222,11111222' 
TCOON,ioos:station:TCOON:006:1,2011-09-05T20:00:00Z,27.8217,-97.2040,0.0,2.3,355.0,5.7,'11111222,11111222,11111222' 
TCOON,ioos:station:TCOON:006:1,2011-09-05T21:00:00Z,27.8217,-97.2040,0.0,2.9,337.0,5.9,'11111222,11111222,11111222' 
TCOON,ioos:station:TCOON:006:1,2011-09-05T22:00:00Z,27.8217,-97.2040,0.0,1.9,9.0,4.5,'11111222,11111222,11111222' 
TCOON,ioos:station:TCOON:006:1,2011-09-05T23:00:00Z,27.8217,-97.2040,0.0,1.5,17.0,3.4,'11111222,11111222,11111222' 
TCOON,ioos:station:TCOON:006:1,2011-09-06T00:00:00Z,27.8217,-97.2040,0.0,0.6,12.0,2.4,'11111222,11111222,11111222' 
TCOON,ioos:station:TCOON:006:1,2011-09-06T01:00:00Z,27.8217,-97.2040,0.0,1.5,356.0,4.3,'11111222,11111222,11111222' 
TCOON,ioos:station:TCOON:006:1,2011-09-06T02:00:00Z,27.8217,-97.2040,0.0,2.8,352.0,4.3,'11111222,11111222,11111222' 
TCOON,ioos:station:TCOON:006:1,2011-09-06T03:00:00Z,27.8217,-97.2040,0.0,2.4,359.0,4.4,'11111222,11111222,11111222' 
TCOON,ioos:station:TCOON:006:1,2011-09-06T04:00:00Z,27.8217,-97.2040,0.0,2.7,355.0,4.4,'11111222,11111222,11111222' 
TCOON,ioos:station:TCOON:006:1,2011-09-06T05:00:00Z,27.8217,-97.2040,0.0,1.6,5.0,4.5,'11111222,11111222,11111222' 
TCOON,ioos:station:TCOON:006:1,2011-09-06T06:00:00Z,27.8217,-97.2040,0.0,1.5,5.0,2.7,'11111222,11111222,11111222' 
TCOON,ioos:station:TCOON:006:1,2011-09-06T07:00:00Z,27.8217,-97.2040,0.0,1.1,8.0,2.8,'11111222,11111222,11111222' 
TCOON,ioos:station:TCOON:006:1,2011-09-06T08:00:00Z,27.8217,-97.2040,0.0,0.6,11.0,3.1,'11111222,11111222,11111222' 
TCOON,ioos:station:TCOON:006:1,2011-09-06T09:00:00Z,27.8217,-97.2040,0.0,1.0,9.0,2.1,'11111222,11111222,11111222' 
TCOON,ioos:station:TCOON:006:1,2011-09-06T10:00:00Z,27.8217,-97.2040,0.0,1.8,3.0,3.5,'11111222,11111222,11111222' 
TCOON,ioos:station:TCOON:006:1,2011-09-06T11:00:00Z,27.8217,-97.2040,0.0,1.3,11.0,3.1,'11111222,11111222,11111222' 
TCOON,ioos:station:TCOON:006:1,2011-09-06T12:00:00Z,27.8217,-97.2040,0.0,1.0,7.0,2.8,'11111222,11111222,11111222' 
TCOON,ioos:station:TCOON:006:1,2011-09-06T13:00:00Z,27.8217,-97.2040,0.0,2.1,17.0,3.9,'11111222,11111222,11111222' 
TCOON,ioos:station:TCOON:006:1,2011-09-06T14:00:00Z,27.8217,-97.2040,0.0,2.9,31.0,5.2,'11111222,11111222,11111222' 
TCOON,ioos:station:TCOON:006:1,2011-09-06T15:00:00Z,27.8217,-97.2040,0.0,3.3,38.0,5.8,'11111222,11111222,11111222' 
TCOON,ioos:station:TCOON:006:1,2011-09-06T16:00:00Z,27.8217,-97.2040,0.0,3.2,49.0,5.9,'11111222,11111222,11111222' 
TCOON,ioos:station:TCOON:006:1,2011-09-06T17:00:00Z,27.8217,-97.2040,0.0,4.0,55.0,6.5,'11111222,11111222,11111222' 
TCOON,ioos:station:TCOON:006:1,2011-09-06T18:00:00Z,27.8217,-97.2040,0.0,4.3,79.0,5.9,'11111222,11111222,11111222' 
TCOON,ioos:station:TCOON:006:1,2011-09-06T19:00:00Z,27.8217,-97.2040,0.0,5.3,83.0,7.1,'11111222,11111222,11111222' 
TCOON,ioos:station:TCOON:006:1,2011-09-06T20:00:00Z,27.8217,-97.2040,0.0,4.2,97.0,6.6,'11111222,11111222,11111222' 
TCOON,ioos:station:TCOON:006:1,2011-09-06T21:00:00Z,27.8217,-97.2040,0.0,3.9,100.0,7.6,'11111222,11111222,11111222' 
TCOON,ioos:station:TCOON:006:1,2011-09-06T22:00:00Z,27.8217,-97.2040,0.0,4.9,145.0,6.3,'11111222,11111222,11111222' 
TCOON,ioos:station:TCOON:006:1,2011-09-06T23:00:00Z,27.8217,-97.2040,0.0,4.1,144.0,5.4,'11111222,11111222,11111222' 
TCOON,ioos:station:TCOON:006:1,2011-09-07T00:00:00Z,27.8217,-97.2040,0.0,3.4,119.0,4.6,'11111222,11111222,11111222' 
TCOON,ioos:station:TCOON:006:1,2011-09-07T01:00:00Z,27.8217,-97.2040,0.0,2.8,124.0,5.3,'11111222,11111222,11111222' 
TCOON,ioos:station:TCOON:006:1,2011-09-07T02:00:00Z,27.8217,-97.2040,0.0,3.1,133.0,5.0,'11111222,11111222,11111222' 
TCOON,ioos:station:TCOON:006:1,2011-09-07T03:00:00Z,27.8217,-97.2040,0.0,3.3,112.0,5.0,'11111222,11111222,11111222' 
TCOON,ioos:station:TCOON:006:1,2011-09-07T04:00:00Z,27.8217,-97.2040,0.0,2.3,129.0,3.6,'11111222,11111222,11111222' 
TCOON,ioos:station:TCOON:006:1,2011-09-07T05:00:00Z,27.8217,-97.2040,0.0,2.0,102.0,3.3,'11111222,11111222,11111222' 
TCOON,ioos:station:TCOON:006:1,2011-09-07T06:00:00Z,27.8217,-97.2040,0.0,1.9,91.0,3.0,'11111222,11111222,11111222' 
TCOON,ioos:station:TCOON:006:1,2011-09-07T07:00:00Z,27.8217,-97.2040,0.0,1.2,94.0,2.4,'11111222,11111222,11111222' 
TCOON,ioos:station:TCOON:006:1,2011-09-07T08:00:00Z,27.8217,-97.2040,0.0,1.5,115.0,2.4,'11111222,11111222,11111222' 
TCOON,ioos:station:TCOON:006:1,2011-09-07T09:00:00Z,27.8217,-97.2040,0.0,1.1,20.0,1.3,'11111222,11111222,11111222' 
TCOON,ioos:station:TCOON:006:1,2011-09-07T10:00:00Z,27.8217,-97.2040,0.0,1.8,360.0,2.5,'11111222,11144222,11111222' 
TCOON,ioos:station:TCOON:006:1,2011-09-07T11:00:00Z,27.8217,-97.2040,0.0,1.5,1.0,2.2,'11111222,11111222,11111222' 
TCOON,ioos:station:TCOON:006:1,2011-09-07T12:00:00Z,27.8217,-97.2040,0.0,0.6,8.0,3.0,'11111222,11111222,11111222' 
TCOON,ioos:station:TCOON:006:1,2011-09-07T13:00:00Z,27.8217,-97.2040,0.0,0.8,3.0,2.0,'11111222,11111222,11111222' 
TCOON,ioos:station:TCOON:006:1,2011-09-07T14:00:00Z,27.8217,-97.2040,0.0,2.1,56.0,3.8,'11111222,11111222,11111222' 
TCOON,ioos:station:TCOON:006:1,2011-09-07T15:00:00Z,27.8217,-97.2040,0.0,2.8,59.0,4.1,'11111222,11111222,11111222' 
TCOON,ioos:station:TCOON:006:1,2011-09-07T16:00:00Z,27.8217,-97.2040,0.0,2.6,62.0,5.0,'11111222,11111222,11111222' 
TCOON,ioos:station:TCOON:006:1,2011-09-07T17:00:00Z,27.8217,-97.2040,0.0,4.0,85.0,5.2,'11111222,11111222,11111222' 
TCOON,ioos:station:TCOON:006:1,2011-09-07T19:00:00Z,27.8217,-97.2040,0.0,4.7,84.0,6.0,'11111222,11111222,11111222' 
TCOON,ioos:station:TCOON:006:1,2011-09-07T20:00:00Z,27.8217,-97.2040,0.0,5.5,76.0,7.0,'11111222,11111222,11111222' 
TCOON,ioos:station:TCOON:006:1,2011-09-07T21:00:00Z,27.8217,-97.2040,0.0,4.3,105.0,6.8,'11111222,11111222,11111222' 
TCOON,ioos:station:TCOON:006:1,2011-09-07T22:00:00Z,27.8217,-97.2040,0.0,4.9,107.0,6.8,'11111222,11111222,11111222' 
TCOON,ioos:station:TCOON:006:1,2011-09-07T23:00:00Z,27.8217,-97.2040,0.0,4.2,111.0,6.2,'11111222,11111222,11111222' 
TCOON,ioos:station:TCOON:006:1,2011-09-08T00:00:00Z,27.8217,-97.2040,0.0,4.9,102.0,7.4,'11111222,11111222,11111222' 
TCOON,ioos:station:TCOON:006:1,2011-09-08T01:00:00Z,27.8217,-97.2040,0.0,5.2,100.0,7.0,'11111222,11111222,11111222' 
TCOON,ioos:station:TCOON:006:1,2011-09-08T02:00:00Z,27.8217,-97.2040,0.0,5.4,97.0,7.6,'11111222,11111222,11111222' 
TCOON,ioos:station:TCOON:006:1,2011-09-08T03:00:00Z,27.8217,-97.2040,0.0,3.8,101.0,6.0,'11111222,11111222,11111222' 
TCOON,ioos:station:TCOON:006:1,2011-09-08T04:00:00Z,27.8217,-97.2040,0.0,4.0,103.0,5.4,'11111222,11111222,11111222' 
TCOON,ioos:station:TCOON:006:1,2011-09-08T05:00:00Z,27.8217,-97.2040,0.0,2.7,97.0,4.3,'11111222,11111222,11111222' 
TCOON,ioos:station:TCOON:006:1,2011-09-08T06:00:00Z,27.8217,-97.2040,0.0,2.2,113.0,3.4,'11111222,11111222,11111222' 
TCOON,ioos:station:TCOON:006:1,2011-09-08T07:00:00Z,27.8217,-97.2040,0.0,1.8,356.0,2.2,'11111222,11111222,11111222' 
TCOON,ioos:station:TCOON:006:1,2011-09-08T08:00:00Z,27.8217,-97.2040,0.0,2.8,349.0,3.4,'11111222,11111222,11111222' 
TCOON,ioos:station:TCOON:006:1,2011-09-08T09:00:00Z,27.8217,-97.2040,0.0,3.3,346.0,4.1,'11111222,11111222,11111222' 
TCOON,ioos:station:TCOON:006:1,2011-09-08T10:00:00Z,27.8217,-97.2040,0.0,3.4,347.0,4.0,'11111222,11111222,11111222' 
TCOON,ioos:station:TCOON:006:1,2011-09-08T11:00:00Z,27.8217,-97.2040,0.0,3.2,348.0,4.1,'11111222,11111222,11111222' 
TCOON,ioos:station:TCOON:006:1,2011-09-08T12:00:00Z,27.8217,-97.2040,0.0,3.1,350.0,4.4,'11111222,11111222,11111222' 
TCOON,ioos:station:TCOON:006:1,2011-09-08T13:00:00Z,27.8217,-97.2040,0.0,2.4,352.0,4.2,'11111222,11111222,11111222' 
TCOON,ioos:station:TCOON:006:1,2011-09-08T14:00:00Z,27.8217,-97.2040,0.0,3.8,341.0,5.7,'11111222,11111222,11111222' 
TCOON,ioos:station:TCOON:006:1,2011-09-08T15:00:00Z,27.8217,-97.2040,0.0,2.1,10.0,4.3,'11111222,11111222,11111222' 
TCOON,ioos:station:TCOON:006:1,2011-09-08T16:00:00Z,27.8217,-97.2040,0.0,1.3,105.0,3.4,'11111222,11111222,11111222' 
TCOON,ioos:station:TCOON:006:1,2011-09-08T17:00:00Z,27.8217,-97.2040,0.0,3.4,169.0,4.1,'11111222,11111222,11111222' 
TCOON,ioos:station:TCOON:006:1,2011-09-08T18:00:00Z,27.8217,-97.2040,0.0,3.1,178.0,4.5,'11111222,11111222,11111222' 
TCOON,ioos:station:TCOON:006:1,2011-09-08T19:00:00Z,27.8217,-97.2040,0.0,4.9,167.0,5.6,'11111222,11111222,11111222' 
TCOON,ioos:station:TCOON:006:1,2011-09-08T20:00:00Z,27.8217,-97.2040,0.0,5.9,124.0,7.8,'11111222,11111222,11111222' 
TCOON,ioos:station:TCOON:006:1,2011-09-08T21:00:00Z,27.8217,-97.2040,0.0,7.0,133.0,7.8,'11111222,11111222,11111222' 
TCOON,ioos:station:TCOON:006:1,2011-09-08T22:00:00Z,27.8217,-97.2040,0.0,6.3,130.0,8.0,'11111222,11111222,11111222' 
TCOON,ioos:station:TCOON:006:1,2011-09-08T23:00:00Z,27.8217,-97.2040,0.0,5.5,150.0,6.8,'11111222,11111222,11111222' 
TCOON,ioos:station:TCOON:006:1,2011-09-09T00:00:00Z,27.8217,-97.2040,0.0,4.7,147.0,6.2,'11111222,11111222,11111222' 
TCOON,ioos:station:TCOON:006:1,2011-09-09T01:00:00Z,27.8217,-97.2040,0.0,4.0,154.0,5.4,'11111222,11111222,11111222' 
TCOON,ioos:station:TCOON:006:1,2011-09-09T02:00:00Z,27.8217,-97.2040,0.0,3.6,158.0,5.8,'11111222,11111222,11111222' 
TCOON,ioos:station:TCOON:006:1,2011-09-09T03:00:00Z,27.8217,-97.2040,0.0,4.6,159.0,5.7,'11111222,11111222,11111222' 
TCOON,ioos:station:TCOON:006:1,2011-09-09T04:00:00Z,27.8217,-97.2040,0.0,4.0,157.0,5.1,'11111222,11111222,11111222' 
TCOON,ioos:station:TCOON:006:1,2011-09-09T05:00:00Z,27.8217,-97.2040,0.0,2.6,160.0,4.0,'11111222,11111222,11111222' 
TCOON,ioos:station:TCOON:006:1,2011-09-09T06:00:00Z,27.8217,-97.2040,0.0,2.5,159.0,3.2,'11111222,11111222,11111222' 
TCOON,ioos:station:TCOON:006:1,2011-09-09T07:00:00Z,27.8217,-97.2040,0.0,1.9,187.0,2.1,'11111222,11111222,11111222' 
TCOON,ioos:station:TCOON:006:1,2011-09-09T08:00:00Z,27.8217,-97.2040,0.0,2.3,343.0,3.4,'11111222,11111222,11111222' 
TCOON,ioos:station:TCOON:006:1,2011-09-09T09:00:00Z,27.8217,-97.2040,0.0,2.2,344.0,2.6,'11111222,11111222,11111222' 
TCOON,ioos:station:TCOON:006:1,2011-09-09T10:00:00Z,27.8217,-97.2040,0.0,1.7,339.0,2.5,'11111222,11111222,11111222' 
TCOON,ioos:station:TCOON:006:1,2011-09-09T11:00:00Z,27.8217,-97.2040,0.0,1.7,333.0,2.3,'11111222,11111222,11111222' 
TCOON,ioos:station:TCOON:006:1,2011-09-09T12:00:00Z,27.8217,-97.2040,0.0,2.0,355.0,2.6,'11111222,11111222,11111222' 
TCOON,ioos:station:TCOON:006:1,2011-09-09T13:00:00Z,27.8217,-97.2040,0.0,1.7,331.0,2.9,'11111222,11111222,11111222' 